Regional Weather Roundup
Issued by NWS

Home | Current Version | Previous Version | Graphics & Text | Print | Product List | Glossary On
Versions: 1 2 3 4 5 6 7 8 9 10 11 12 13 14 15 16 17 18 19 20 21 22 23 24 25 26 27 28 29 30 31 32 33 34 35 36 37 38 39 40 41 42 43 44 45 46 47 48 49 50
000
ASUS43 KDMX 201307
RWRIA

WEATHER ROUNDUP FOR IOWA
NATIONAL WEATHER SERVICE DES MOINES IA
700 AM CST SAT DEC 20 2014

NOTE: "FAIR" INDICATES FEW OR NO CLOUDS BELOW 12,000 FEET WITH NO
SIGNIFICANT WEATHER AND/OR OBSTRUCTIONS TO VISIBILITY.

* - THESE STATIONS ARE NOT NWS STATIONS...THUS NOT UNDER NWS
QUALITY CONTROL.  THEY ALSO DO NOT REPORT WEATHER SUCH
AS PRECIPITATION OR FOG.

IAZ001>003-012>014-020>022-031>034-043>046-201400-
   NORTHWEST IOWA

CITY           SKY/WX    TMP DP  RH WIND       PRES   REMARKS
CARROLL *      CLOUDY    30  30 100 S6        30.13S FOG     WCI  24
CHEROKEE *     CLOUDY    30  30 100 SE7       30.11S FOG     WCI  23
DENISON *      CLOUDY    30  30 100 SE8       30.10S FOG     WCI  23
LE MARS *      CLOUDY    32  32 100 S7        30.10R FOG     WCI  26
ORANGE CITY *  CLOUDY    30  30 100 S7        30.08R FOG     WCI  23
SHELDON *      CLOUDY    30  30 100 S12       30.08R FOG     WCI  21
SIOUX CITY     CLOUDY    32  30  92 S8        30.10S FOG     WCI  25
SPENCER        CLOUDY    30  27  88 SE9       30.10F FOG     WCI  22
STORM LAKE *   CLOUDY    28  28 100 SE10      30.11R FOG     WCI  19
$$

IAZ055>058-069>071-079>083-090>094-201400-
   SOUTHWEST IOWA

CITY           SKY/WX    TMP DP  RH WIND       PRES   REMARKS
ATLANTIC *     CLOUDY    30  30 100 S8        30.13R FOG     WCI  23
AUDUBON *      CLOUDY    30  25  80 S3        30.14R HAZE
CLARINDA *     CLOUDY    32  32 100 S10       30.16S FOG     WCI  24
COUNCIL BLFS * FOG       32  32 100 S7        30.10R VSB 1   WCI  26
CRESTON *      CLOUDY    30  30 100 S10       30.15R FOG     WCI  21
HARLAN  *      CLOUDY    30  30 100 S6        30.15S FOG     WCI  24
LAMONI         CLOUDY    31  30  96 S6        30.16S FOG     WCI  25
RED OAK *      CLOUDY    32  32 100 S10       30.14R FOG     WCI  24
SHENANDOAH *   CLOUDY    32  32 100 SE13      30.13S FOG     WCI  22
$$

IAZ047>049-059>061-072>074-084-201400-
   CENTRAL IOWA

CITY           SKY/WX    TMP DP  RH WIND       PRES   REMARKS
AMES           CLOUDY    30  28  92 S3        30.17S FOG
ANKENY *       CLOUDY    32  30  93 S6        30.18R WCI  26
CHARITON *     CLOUDY    32  32 100 S5        30.18R FOG     WCI  27
DES MOINES     CLOUDY    32  28  85 S3        30.17S
GRINNELL*      MIX PCPN  30  30 100 SE8       30.19S WCI  23
KNOXVILLE *    CLOUDY    32  30  93 CALM      30.17R FOG
MARSHALLTOWN   CLOUDY    30  29  96 SE7       30.17S FOG     WCI  23
PELLA *        DRZL/FOG  32  32 100 CALM      30.20R VSB 3/4
PERRY *        CLOUDY    30  30 100 S5        30.16R FOG     WCI  25
$$

IAZ004>006-015-016-023>025-035-036-201400-
   NORTH CENTRAL IOWA

CITY           SKY/WX    TMP DP  RH WIND       PRES   REMARKS
ALGONA *       CLOUDY    28  28 100 S8        30.14S WCI  20
CLARION *      CLOUDY    30  30 100 S7        30.15S WCI  23
ESTHERVILLE    CLOUDY    28  27  96 S10       30.12R WCI  19
FORT DODGE *   CLOUDY    28  25  86 CALM      30.16R
MASON CITY     FOG       29  28  96 SE9       30.17R VSB 1/2 WCI  20
FOREST CITY *  CLOUDY    30  30 100 S6        30.15R FOG     WCI  24
IOWA FALLS *   LGT SNOW  30  28  93 SE6       30.17S WCI  24
$$

IAZ007>011-017>019-026>030-037>042-050>054-066-201400-
   NORTHEAST IOWA

CITY           SKY/WX    TMP DP  RH WIND       PRES   REMARKS
CEDAR RAPIDS   CLOUDY    29  26  89 SE6       30.21R WCI  23
CHARLES CITY * CLOUDY    28  28 100 SE7       30.18S FOG     WCI  21
CLINTON *      CLOUDY    28  25  86 E7        30.28R WCI  21
DECORAH *      CLOUDY    27  25  93 SE8       30.19R WCI  18
DUBUQUE        CLOUDY    26  24  92 SE8       30.22S FOG     WCI  18
MONTICELLO *   CLOUDY    28  27  93 SE8       30.22S WCI  20
OELWEIN *      CLOUDY    28  27  93 SE9       30.20S WCI  20
WATERLOO       CLOUDY    29  27  92 S7        30.20R FOG     WCI  22
$$

IAZ064-065-067-068-078-201400-
   EAST CENTRAL IOWA

CITY           SKY/WX    TMP DP  RH WIND       PRES   REMARKS
DAVENPORT      CLOUDY    29  23  78 SE7       30.24S WCI  22
IOWA CITY      CLOUDY    30  25  81 SE6       30.24R WCI  24
MT. PLEASANT * CLOUDY    30  27  86 S5        30.22F FOG     WCI  25
MUSCATINE *    CLOUDY    32  27  80 SE6       30.25R WCI  26
QUAD CITIES    CLOUDY    29  24  82 E5        30.25S WCI  24
$$

IAZ062-063-075>077-085>089-095>099-201400-
   SOUTHEAST IOWA

CITY           SKY/WX    TMP DP  RH WIND       PRES   REMARKS
BURLINGTON     CLOUDY    31  26  82 SE5       30.23S WCI  26
FAIRFIELD *    CLOUDY    30  28  93 SE7       30.21S FOG     WCI  23
FORT MADISON * CLOUDY    34  30  86 S5        30.23S WCI  30
KEOKUK *       CLOUDY    32  28  86 SE3       30.22S
OSKALOOSA *    CLOUDY    30  30 100 SE5       30.20S FOG     WCI  25
CENTERVILLE *  LGT SNOW  32  32 100 SE5       30.19S WCI  27
OTTUMWA        CLOUDY    31  29  92 S7        30.19S FOG     WCI  24
WASHINGTON *   CLOUDY    32  32 100 S6        30.22S WCI  26
$$

ABBREVIATIONS USED IN REMARKS
   TC - TEMPERATURES IN CELSIUS
  WCI - WIND CHILL INDEX
   HX - HEAT INDEX
  VSB - VISIBILITY
$$




USA.gov is the U.S. government's official web portal to all federal, state and local government web resources and services.